CZ-6A DEB, 61494

Orbit data source: Space-Track

CZ-6A DEB, 61494 is space debris in LEO originally from a launch on Tue, 06 Aug 2024 UTC launched from the Taiyaun Space Center, China (TSC). Debris objects in space refer to the collection of defunct objects orbiting the Earth. Examples of debris include non-operational satellites, rocket bodies, and fragments generated from explosions, collisions, or faulty payload assembly.

Loading next visibility...
Identifier
61494, 2024-140ABC
Orbit
LEO
Country
Flag of CNCN / PRC
Related business
Manufacturer
SAST
Mission
Spacecraft
Bus & Motor
Unknown
Mass
Unknown
Launch date (UTC)
2024-08-06 (2 years ago)
Launch vehicle
Unknown
Launch site
Taiyaun Space Center, China (TSC)
Object type
Payload
Rocket body
Debris
Shape & HBR
Unknown shape, 0.1 m
Radar Cross Section
Small (<0.1 m²)

Expand to show TLE details & history
Last TLE update: 2 days ago

TLE from 2 days ago
0 CZ-6A DEB
1 61494U 24140ABC 26169.67311715  .00002130  00000-0  11515-2 0  9991
2 61494  88.8584 264.9840 0103093 230.4784 128.7254 14.09596055 91074
Epoch: 2026-06-18T16:09Z
TLE epoch observation values (Epoch: 2026-06-18T16:09:17.321Z)
Latitude
-0.00007°
Longitude
115.74875°
Altitude
910.952 km
Speed
7.372 km/s
True Right ascension
17h 39m 56s
True Declination
0° 00' 00"
Sunlit
Object was in full shadow at epoch
Visualization orbit readout
Latitude
Unknown
Longitude
Unknown
Altitude
Unknown
Speed
Unknown
Apparent Right ascension
Unknown
Apparent Declination
Unknown
Sunlit
N/A
Visualization observer readout
Local Sidereal Time
07:22:56
Azimuth
Unknown
Elevation
Unknown
Doppler factor
Unknown
Orbital elements
Apogee altitude
932.317 km
Perigee altitude
783.124 km
Semi-major axis
7,235.858 km
Eccentricity
0.01031
Inclination
88.8584°
RAAN
264.984°
Arg. of periapsis
230.4784°
True anomaly
129.63963°
Mean anomaly
128.7254°
Eccentric anomaly
129.18325°
Mean motion
3.52621 °/min
Orbital period
102.09 mins
BSTAR
0.0011515
Loading maneuver chart data...
Computing Atmospheric mass density...
Loading historical data...
Loading historical data...
Loading historical data...
Loading historical data...
Loading historical data...
Loading historical data...
Loading historical data...

Documentation

Showing up to 5 results
|